Date,TemperatureHighF,TemperatureAvgF,TemperatureLowF,DewpointHighF,DewpointAvgF,DewpointLowF,HumidityHigh,HumidityAvg,HumidityLow,PressureMaxIn,PressureMinIn,WindSpeedMaxMPH,WindSpeedAvgMPH,GustSpeedMaxMPH,PrecipitationSumIn
2013-1-1,47.3,43.8,40.2,42.0,37.6,29.0,95,80,57,30.05,29.88,7,1,10,0.24
2013-1-2,41.3,37.5,33.5,39.0,35.3,32.0,100,92,82,30.20,29.96,6,1,10,0.20
2013-1-3,40.5,33.1,25.8,33.0,25.3,19.0,99,75,50,30.24,30.16,6,0,9,0.00
2013-1-4,46.1,34.6,22.3,28.0,24.6,20.0,94,70,46,30.25,30.14,16,3,19,0.00
2013-1-5,50.1,37.6,25.6,30.0,24.8,21.0,84,62,37,30.37,30.21,5,1,8,0.00
2013-1-6,52.0,41.1,31.7,38.0,34.1,28.0,93,78,53,30.21,30.03,8,1,13,0.03
2013-1-7,50.5,37.1,26.3,34.0,29.8,24.0,94,77,48,30.43,30.15,9,0,13,0.00
2013-1-8,50.5,37.3,24.4,38.0,32.2,23.0,95,83,61,30.45,30.37,6,1,8,0.00
2013-1-9,69.1,51.9,35.2,54.0,45.4,33.0,95,80,59,30.39,30.26,14,3,19,0.00
2013-1-10,58.5,45.1,32.9,49.0,36.4,31.0,97,75,39,30.55,30.36,10,1,11,0.00
2013-1-11,47.8,40.8,30.2,47.0,39.4,29.0,97,94,88,30.47,30.10,7,1,13,0.08
2013-1-12,55.4,53.1,48.1,55.0,52.4,47.0,100,97,97,30.15,30.08,11,1,15,0.00
2013-1-13,71.2,60.2,53.6,64.0,58.3,53.0,98,93,76,30.11,30.00,10,4,15,0.01
2013-1-14,62.7,56.9,44.3,61.0,55.5,43.0,97,95,93,30.23,30.02,14,3,23,1.48
2013-1-15,43.6,41.3,39.8,42.0,40.5,39.0,97,96,95,30.29,30.08,8,1,17,1.10
2013-1-16,45.4,41.2,37.1,45.0,40.4,36.0,97,97,96,30.09,29.91,8,1,13,0.53
2013-1-17,46.3,41.4,32.5,46.0,40.6,32.0,98,97,95,30.10,29.98,14,2,23,1.63
2013-1-18,40.4,33.6,28.5,36.0,29.8,25.0,98,87,59,30.51,30.11,9,0,12,0.00
2013-1-19,53.2,38.7,27.4,33.0,28.8,24.0,89,70,43,30.48,30.08,9,4,15,0.00
2013-1-20,59.6,46.4,32.5,37.0,31.6,29.0,85,58,37,30.08,29.90,20,5,30,0.00
2013-1-21,55.3,40.4,23.7,31.0,26.3,15.0,94,62,38,30.09,29.79,17,4,24,0.00
2013-1-22,37.3,27.1,16.8,15.0,6.7,2.0,74,44,30,30.28,29.92,17,6,22,0.00
2013-1-23,34.2,24.9,10.7,15.0,7.3,3.0,86,51,27,30.35,30.07,13,2,25,0.00
2013-1-24,30.7,24.8,11.9,23.0,12.3,3.0,86,62,33,30.54,29.99,16,4,20,0.00
2013-1-25,25.6,18.4,9.6,21.0,12.9,6.0,92,81,45,30.53,30.09,6,1,11,0.09
2013-1-26,33.9,23.0,9.4,27.0,19.4,7.0,93,86,74,30.43,30.08,2,0,7,0.00
2013-1-27,39.1,28.7,17.2,27.0,22.5,15.0,94,79,56,30.60,30.42,5,0,9,0.00
2013-1-28,55.5,41.4,30.2,44.0,35.6,24.0,95,80,61,30.50,30.13,15,5,21,0.12
2013-1-29,75.3,58.4,44.2,58.0,49.8,42.0,94,75,47,30.14,30.02,10,2,14,0.00
2013-1-30,71.0,68.4,60.2,63.0,61.9,55.0,89,80,73,30.01,29.28,26,12,39,0.07
2013-1-31,66.2,45.3,27.7,63.0,31.2,18.0,94,60,35,29.95,29.24,37,12,37,0.51
2013-2-1,39.1,31.2,20.7,28.0,14.1,6.0,74,51,33,30.38,29.80,24,8,37,0.00
2013-2-2,38.2,27.2,14.3,26.0,13.6,8.0,87,59,33,30.38,30.01,12,2,20,0.00
2013-2-3,44.7,36.4,27.9,31.0,25.3,20.0,85,65,44,30.00,29.82,12,3,21,0.00
2013-2-4,42.4,33.5,21.5,26.0,20.3,17.0,92,60,41,30.12,29.93,10,2,13,0.00
2013-2-5,57.4,48.7,39.8,39.0,33.9,26.0,71,58,47,29.94,29.83,12,2,16,0.00
2013-2-6,57.3,44.1,29.5,38.0,32.2,28.0,93,66,35,30.32,29.92,9,1,14,0.00
2013-2-7,45.6,38.9,29.6,38.0,31.5,26.0,94,76,60,30.39,30.11,10,2,13,0.35
2013-2-8,49.6,41.8,37.4,43.0,37.7,29.0,99,86,61,30.11,29.75,15,5,25,0.95
2013-2-9,48.3,36.2,24.1,29.0,22.1,16.0,85,60,28,30.37,29.95,13,3,20,0.00
2013-2-10,50.0,34.0,17.1,30.0,22.0,15.0,92,66,34,30.50,30.24,3,1,9,0.00
2013-2-11,61.9,52.1,39.3,58.0,49.0,33.0,96,89,70,30.24,29.83,21,6,29,0.07
2013-2-12,59.5,50.1,36.9,49.0,33.2,28.0,78,54,34,30.01,29.84,10,2,17,0.00
2013-2-13,49.1,44.1,38.3,45.0,40.1,33.0,96,86,54,29.91,29.61,8,0,13,0.14
2013-2-14,51.8,38.8,28.8,41.0,33.9,28.0,97,84,54,30.04,29.79,6,1,12,0.01
2013-2-15,62.1,45.5,29.0,40.0,33.0,28.0,96,67,31,30.05,29.89,11,2,17,0.00
2013-2-16,43.6,35.4,29.1,37.0,33.0,27.0,95,91,77,29.98,29.82,10,2,13,0.22
2013-2-17,32.1,27.3,19.9,27.0,15.1,8.0,91,62,38,30.24,29.85,20,6,33,0.00
2013-2-18,50.2,31.7,11.8,22.0,15.4,9.0,88,56,25,30.40,30.22,7,1,10,0.00
2013-2-19,49.5,40.9,32.4,47.0,35.4,21.0,94,81,55,30.23,29.79,16,4,21,0.06
2013-2-20,46.6,37.4,28.3,34.0,19.9,16.0,83,51,31,30.13,29.89,16,3,28,0.00
2013-2-21,46.8,33.1,19.6,24.0,19.8,17.0,91,61,34,30.28,30.12,9,1,13,0.00
2013-2-22,41.3,36.3,32.5,34.0,24.9,18.0,92,64,51,30.36,30.19,9,0,13,0.01
2013-2-23,42.3,38.5,35.4,41.0,37.4,34.0,97,95,93,30.17,29.79,5,0,9,0.22
2013-2-24,55.7,43.7,35.2,44.0,38.9,25.0,97,84,56,30.08,29.79,8,1,17,0.00
2013-2-25,43.4,33.3,25.1,28.0,23.9,22.0,91,70,44,30.22,30.09,7,0,13,0.00
2013-2-26,52.9,39.8,24.1,52.0,38.0,22.0,100,93,83,30.21,29.54,18,4,28,0.50
2013-2-27,58.4,47.3,33.7,50.0,40.6,32.0,97,80,46,29.69,29.55,20,4,22,0.00
2013-2-28,49.0,42.1,34.8,39.0,31.8,27.0,95,69,47,29.78,29.64,19,6,25,0.01
2013-3-1,43.9,39.0,32.3,33.0,29.8,27.0,82,70,56,29.89,29.78,8,2,11,0.00
2013-3-2,38.9,35.6,33.2,31.0,27.4,24.0,85,73,59,29.89,29.82,8,1,9,0.00
2013-3-3,44.9,36.3,25.6,25.0,22.1,19.0,83,58,40,29.93,29.79,11,2,17,0.00
2013-3-4,48.6,34.6,23.1,22.0,17.0,14.0,73,51,29,30.05,29.93,12,4,21,0.00
2013-3-5,49.0,38.3,25.8,38.0,28.7,17.0,95,71,36,30.07,29.64,10,2,22,0.49
2013-3-6,38.8,35.5,32.4,38.0,33.8,31.0,96,93,85,29.97,29.43,15,8,30,0.40
2013-3-7,47.5,38.9,28.6,32.0,29.1,25.0,94,70,49,30.18,29.97,14,4,25,0.00
2013-3-8,50.0,39.1,27.1,31.0,27.5,24.0,89,65,45,30.24,30.12,17,4,27,0.00
2013-3-9,60.4,42.2,27.8,33.0,27.9,24.0,90,62,25,30.32,30.23,8,1,13,0.00
2013-3-10,64.8,45.3,23.9,40.0,27.6,22.0,93,59,21,30.33,30.21,8,2,14,0.00
2013-3-11,66.9,54.0,41.0,53.0,46.2,39.0,96,77,54,30.24,29.93,20,4,20,0.00
2013-3-12,69.1,59.7,49.4,61.0,52.6,39.0,95,79,46,29.94,29.70,17,6,25,0.73
2013-3-13,54.4,43.5,29.9,39.0,30.4,19.0,95,63,36,30.08,29.91,21,6,31,0.00
2013-3-14,50.6,37.5,26.1,25.0,20.4,18.0,73,52,30,30.18,30.04,15,4,25,0.00
2013-3-15,58.4,41.6,25.8,37.0,26.5,19.0,78,57,33,30.13,29.82,11,2,21,0.00
2013-3-16,72.1,55.5,44.6,56.0,46.0,36.0,96,72,50,29.84,29.55,8,2,30,0.21
2013-3-17,53.1,40.7,36.8,52.0,38.6,35.0,97,92,89,30.26,29.83,8,1,15,0.11
2013-3-18,38.6,35.8,34.0,38.0,34.7,33.0,96,95,94,30.25,29.86,8,2,14,0.32
2013-3-19,64.6,47.9,35.5,44.0,32.2,11.0,97,64,18,29.98,29.75,17,5,30,0.01
2013-3-20,55.5,43.2,27.5,24.0,17.8,12.0,67,38,21,30.05,29.77,14,3,23,0.00
2013-3-21,41.7,36.2,26.3,28.0,20.8,12.0,80,55,35,29.94,29.69,18,5,22,0.00
2013-3-22,49.5,33.4,19.4,24.0,17.8,12.0,79,55,31,30.03,29.91,15,2,22,0.00
2013-3-23,56.7,38.3,21.2,31.0,24.6,19.0,91,63,27,30.05,29.89,11,1,15,0.00
2013-3-24,39.5,33.7,26.7,34.0,30.0,24.0,95,87,66,29.97,29.61,8,2,15,0.74
2013-3-25,43.6,34.4,29.6,38.0,32.4,28.0,96,92,75,29.72,29.52,16,1,18,0.06
2013-3-26,48.3,38.9,28.7,33.0,29.3,26.0,91,70,49,30.04,29.73,12,2,20,0.00
2013-3-27,50.0,39.6,27.1,32.0,26.8,24.0,92,63,39,30.16,30.04,16,4,23,0.00
2013-3-28,53.0,40.5,26.6,30.0,26.4,23.0,89,60,36,30.25,30.12,16,3,24,0.00
2013-3-29,59.0,42.9,29.1,36.0,29.9,25.0,88,64,35,30.28,30.14,9,1,18,0.00
2013-3-30,63.2,47.2,27.0,39.0,31.6,25.0,94,61,28,30.22,30.09,9,1,15,0.00
2013-3-31,59.8,50.6,44.4,55.0,46.5,35.0,96,86,64,30.11,29.74,13,3,16,0.31
2013-4-1,69.4,57.4,44.1,53.0,43.2,29.0,96,63,37,29.97,29.74,24,6,29,0.00
2013-4-2,55.1,43.1,27.8,31.0,25.2,20.0,88,54,26,30.15,29.98,17,3,25,0.00
2013-4-3,57.2,40.4,22.2,27.0,21.0,16.0,91,53,21,30.35,30.16,13,2,20,0.00
2013-4-4,50.1,39.6,29.3,37.0,26.2,16.0,94,62,36,30.41,30.02,10,1,15,0.71
2013-4-5,63.7,47.0,37.4,44.0,38.3,35.0,96,76,37,30.00,29.84,8,2,14,0.21
2013-4-6,59.3,47.5,35.2,36.0,30.0,24.0,92,55,28,30.29,30.01,11,2,18,0.00
2013-4-7,71.7,58.2,30.3,44.0,40.2,28.0,94,55,35,30.27,30.04,20,4,23,0.00
2013-4-8,80.0,67.6,53.5,56.0,51.8,43.0,84,59,39,30.10,29.98,13,4,20,0.00
2013-4-9,85.8,72.8,60.7,59.0,56.0,53.0,83,58,34,30.11,29.98,15,4,20,0.00
2013-4-10,89.3,76.3,63.1,62.0,58.7,57.0,81,57,35,30.02,29.84,15,4,20,0.00
2013-4-11,83.7,72.3,64.0,63.0,60.0,58.0,82,66,47,29.91,29.75,15,6,20,0.00
2013-4-12,83.8,72.1,66.1,69.0,63.0,46.0,94,74,46,29.76,29.53,17,6,26,0.33
2013-4-13,72.6,61.5,46.2,49.0,44.1,40.0,92,56,32,29.93,29.68,15,3,20,0.00
2013-4-14,78.8,61.2,39.1,48.0,41.6,36.0,92,53,26,30.09,29.94,10,2,15,0.00
2013-4-15,68.2,58.7,52.4,58.0,53.5,45.0,94,84,55,30.23,30.05,10,2,21,0.15
2013-4-16,76.4,64.2,51.3,62.0,57.4,50.0,97,80,55,30.29,30.16,8,1,11,0.00
2013-4-17,84.6,69.4,58.2,68.0,61.7,57.0,96,78,47,30.19,30.07,11,2,13,0.01
2013-4-18,80.5,69.8,62.3,65.0,60.7,58.0,92,74,48,30.19,30.01,11,5,19,0.00
2013-4-19,81.8,69.8,62.9,68.0,64.1,59.0,95,83,61,30.01,29.66,22,7,31,0.97
2013-4-20,64.3,54.2,41.2,63.0,41.3,33.0,94,65,33,30.27,29.73,10,1,17,0.09
2013-4-21,58.3,48.6,39.2,41.0,35.0,30.0,98,61,41,30.54,30.27,17,4,21,0.00
2013-4-22,58.3,45.6,29.4,43.0,37.9,28.0,96,76,56,30.52,30.32,16,5,20,0.00
2013-4-23,63.4,52.0,44.7,50.0,45.4,43.0,94,79,57,30.32,30.12,10,2,14,0.00
2013-4-24,77.8,61.8,43.5,57.0,51.9,42.0,96,73,46,30.12,29.89,20,5,27,0.00
2013-4-25,66.9,59.3,48.8,57.0,43.3,36.0,81,58,35,30.27,29.94,12,2,17,0.00
2013-4-26,69.7,54.7,36.3,49.0,41.9,35.0,95,67,32,30.43,30.27,11,1,12,0.00
2013-4-27,72.2,59.4,46.3,52.0,44.0,40.0,92,60,36,30.38,30.25,8,1,15,0.00
2013-4-28,64.7,56.5,49.1,55.0,46.8,42.0,92,71,45,30.29,30.10,8,1,10,0.02
2013-4-29,68.1,59.1,54.4,61.0,56.8,52.0,96,92,76,30.11,29.97,8,1,11,0.77
2013-4-30,66.7,59.7,55.4,60.0,56.4,54.0,97,89,75,30.20,30.03,10,2,15,0.01
2013-5-1,67.4,59.4,54.1,56.0,51.5,44.0,96,77,52,30.36,30.20,12,3,22,0.01
2013-5-2,67.0,58.1,47.6,54.0,51.0,46.0,94,78,54,30.38,30.27,8,2,16,0.00
2013-5-3,67.7,53.6,38.9,56.0,46.0,38.0,97,78,45,30.31,30.23,16,4,19,0.00
2013-5-4,62.9,51.1,40.7,53.0,45.9,39.0,96,83,62,30.27,30.12,10,2,21,0.00
2013-5-5,61.1,52.2,37.5,53.0,47.4,36.0,96,84,73,30.16,30.07,15,4,18,0.00
2013-5-6,69.7,59.5,53.9,64.0,57.1,52.0,96,92,76,30.09,29.90,16,5,28,0.64
2013-5-7,72.9,63.1,56.9,65.0,59.0,54.0,97,87,53,29.93,29.83,11,2,16,0.08
2013-5-8,65.1,57.6,51.0,59.0,55.5,50.0,97,93,76,30.00,29.91,8,1,10,0.19
2013-5-9,78.2,62.8,48.2,65.0,56.2,47.0,98,82,51,30.01,29.95,12,1,17,0.01
2013-5-10,85.5,71.1,53.7,64.0,60.1,53.0,97,71,43,30.02,29.87,17,2,20,0.00
2013-5-11,81.0,71.3,61.8,68.0,63.4,60.0,93,77,53,29.90,29.73,15,3,22,0.02
2013-5-12,70.3,62.5,43.9,61.0,50.4,37.0,95,68,33,30.03,29.74,14,2,19,0.03
2013-5-13,63.2,49.8,34.2,42.0,37.1,32.0,95,67,33,30.17,30.03,13,1,18,0.00
2013-5-14,69.0,52.6,32.1,43.0,37.4,31.0,96,62,32,30.23,30.05,12,1,16,0.00
2013-5-15,87.0,70.1,53.9,65.0,54.3,42.0,71,58,45,30.05,29.77,15,4,22,0.00
2013-5-16,87.4,75.0,64.1,65.0,61.8,59.0,90,66,43,29.92,29.80,14,2,18,0.00
2013-5-17,84.9,71.4,59.5,67.0,59.2,54.0,95,69,42,30.12,29.91,10,1,15,0.51
2013-5-18,67.0,63.5,58.6,66.0,61.8,55.0,96,94,85,30.17,30.09,8,1,12,0.61
2013-5-19,75.8,67.5,63.5,70.0,65.5,63.0,98,93,81,30.17,30.06,6,0,22,0.10
2013-5-20,80.0,70.4,64.0,71.0,67.3,63.0,97,90,72,30.10,29.99,11,2,15,0.22
2013-5-21,81.8,73.0,67.1,74.0,69.6,66.0,97,89,74,30.01,29.89,8,1,12,0.00
2013-5-22,84.5,75.5,68.9,73.0,69.4,67.0,96,82,63,29.98,29.85,13,4,21,0.00
2013-5-23,82.6,72.4,67.6,72.0,67.8,63.0,95,86,58,29.92,29.76,12,2,17,0.04
2013-5-24,67.3,60.5,44.6,63.0,53.0,41.0,97,78,50,30.15,29.76,14,2,22,0.02
2013-5-25,68.5,52.0,35.2,51.0,40.4,34.0,96,68,39,30.23,30.10,12,1,17,0.00
2013-5-26,73.4,56.2,36.8,52.0,43.0,35.0,96,67,30,30.25,30.14,6,0,13,0.00
2013-5-27,76.8,61.9,41.6,65.0,52.8,40.0,96,75,50,30.27,30.15,12,1,17,0.00
2013-5-28,85.9,72.1,58.6,69.0,62.3,54.0,88,73,54,30.20,30.08,13,3,19,0.00
2013-5-29,87.6,76.4,65.3,70.0,65.5,62.0,89,70,50,30.16,30.09,14,3,19,0.00
2013-5-30,87.7,75.8,64.0,71.0,66.5,62.0,93,74,50,30.21,30.12,13,2,16,0.00
2013-5-31,89.4,76.7,63.9,71.0,66.4,62.0,95,73,45,30.18,30.04,13,2,18,0.00
2013-6-1,89.8,78.4,68.0,72.0,67.7,64.0,95,72,49,30.08,29.94,14,4,19,0.00
2013-6-2,85.7,75.2,66.6,71.0,67.3,65.0,96,78,58,29.97,29.86,17,4,22,0.30
2013-6-3,82.6,73.2,66.7,74.0,69.4,66.0,97,88,68,29.92,29.79,9,1,14,0.09
2013-6-4,79.4,69.0,54.7,66.0,56.1,49.0,96,67,41,30.11,29.91,9,1,17,0.00
2013-6-5,80.3,67.5,52.3,63.0,56.3,51.0,96,70,47,30.15,30.03,10,1,12,0.00
2013-6-6,76.8,68.1,55.9,69.0,62.9,53.0,94,84,68,30.05,29.81,11,2,18,0.02
2013-6-7,75.6,70.3,68.3,74.0,69.2,67.0,97,96,94,29.81,29.50,8,1,16,1.80
2013-6-9,75.3,74.9,74.4,71.0,71.0,71.0,89,88,87,30.06,30.05,0,0,6,0.00
2013-6-10,82.1,75.3,70.9,75.0,72.3,70.0,96,90,75,30.02,29.82,16,4,22,0.36
2013-6-11,83.8,75.0,66.3,70.0,68.5,64.0,96,81,58,29.88,29.81,12,3,21,0.01
2013-6-12,89.5,77.4,62.8,76.0,69.9,62.0,97,79,56,29.90,29.79,8,1,14,0.00
2013-6-13,92.5,78.3,67.9,77.0,72.1,66.0,94,82,52,29.79,29.51,16,5,28,0.42
2013-6-14,77.1,70.2,58.9,64.0,59.1,57.0,94,69,52,29.98,29.77,10,1,17,0.00
2013-6-15,83.1,69.4,53.5,67.0,59.9,52.0,97,75,47,30.09,29.98,9,1,12,0.00
2013-6-16,87.7,76.1,64.3,72.0,67.1,61.0,89,74,56,30.04,29.92,13,3,19,0.00
2013-6-17,84.5,75.4,68.7,74.0,70.7,67.0,96,86,67,29.99,29.86,11,1,15,0.06
2013-6-18,80.1,71.7,65.0,74.0,69.8,64.0,97,93,82,29.92,29.75,10,1,18,0.88
2013-6-19,75.4,68.6,61.7,68.0,65.3,61.0,98,89,77,30.12,29.85,7,1,11,0.01
2013-6-20,79.5,69.5,58.8,65.0,60.3,52.0,97,75,52,30.25,30.13,11,1,12,0.00
2013-6-21,81.4,67.7,51.6,69.0,60.1,51.0,96,78,51,30.28,30.20,8,1,12,0.00
2013-6-22,83.4,71.6,62.7,75.0,67.9,61.0,97,88,69,30.23,30.14,6,1,15,0.78
2013-6-23,80.0,72.4,69.5,76.0,70.7,69.0,98,94,84,30.17,30.09,7,0,8,0.48
2013-6-24,88.5,79.1,69.8,76.0,73.4,68.0,96,84,63,30.14,30.02,11,2,14,0.01
2013-6-25,90.4,80.5,70.9,77.0,73.1,69.0,94,79,56,30.04,29.92,10,2,14,0.00
2013-6-26,91.8,78.1,68.8,77.0,71.8,68.0,97,82,58,29.94,29.81,24,2,32,0.51
2013-6-27,85.6,74.4,66.8,77.0,70.7,66.0,97,89,67,29.85,29.66,15,3,24,0.10
2013-6-28,89.6,77.9,71.5,76.0,71.9,69.0,96,83,61,29.68,29.51,16,4,19,0.01
2013-6-29,88.0,77.6,69.2,75.0,71.1,68.0,96,81,56,29.69,29.53,12,1,20,0.01
2013-6-30,86.1,77.3,71.3,76.0,73.2,70.0,96,88,69,29.85,29.69,11,2,16,0.82
2013-7-1,84.0,74.6,70.2,76.0,72.3,69.0,97,93,73,29.98,29.82,11,2,15,0.75
2013-7-2,79.1,74.1,71.8,75.0,72.5,71.0,97,94,86,30.18,29.98,8,2,15,0.86
2013-7-3,86.9,78.1,71.6,78.0,74.3,70.0,97,89,70,30.23,30.15,9,2,13,0.03
2013-7-4,88.0,79.5,72.6,76.0,73.4,71.0,97,83,62,30.27,30.16,12,2,16,0.01
2013-7-5,88.7,79.0,70.1,77.0,73.4,69.0,97,84,64,30.25,30.13,9,2,13,0.00
2013-7-6,88.7,78.9,72.3,76.0,73.4,71.0,96,84,58,30.22,30.09,10,2,15,0.00
2013-7-7,87.6,79.4,71.3,77.0,73.6,70.0,95,83,65,30.13,30.01,12,2,18,0.00
2013-7-8,85.4,76.8,71.4,76.0,72.5,70.0,97,87,65,30.13,30.05,8,2,13,0.26
2013-7-9,87.5,79.7,72.0,80.0,75.1,71.0,97,86,73,30.11,30.01,7,1,12,0.00
2013-7-10,88.2,78.4,71.3,79.0,74.2,69.0,96,87,71,30.04,29.89,10,2,19,0.37
2013-7-11,81.2,74.7,70.6,76.0,72.5,70.0,97,93,79,29.96,29.86,9,2,11,0.40
2013-7-12,76.4,71.2,67.4,72.0,69.5,67.0,97,94,86,30.02,29.84,8,0,12,0.61
2013-7-13,82.7,74.5,67.4,78.0,72.1,67.0,98,92,82,30.22,30.02,8,1,15,0.13
2013-7-14,89.0,78.6,68.6,78.0,73.4,68.0,98,85,58,30.31,30.22,6,0,10,0.00
2013-7-15,90.5,78.9,69.5,80.0,73.6,69.0,98,85,59,30.31,30.20,7,0,7,0.00
2013-7-16,93.7,80.9,70.1,80.0,74.8,69.0,97,83,57,30.22,30.13,12,0,23,0.03
2013-7-17,92.6,80.0,69.4,80.0,74.7,69.0,98,85,58,30.19,30.08,1,0,7,0.01
2013-7-18,94.5,82.3,70.0,81.0,75.1,69.0,97,81,51,30.12,30.00,0,0,5,0.00
2013-7-19,91.4,82.7,74.8,80.0,76.9,73.0,96,83,67,30.04,29.91,15,2,15,0.00
2013-7-20,89.7,81.8,75.7,80.0,75.9,73.0,92,83,70,29.94,29.84,12,3,20,0.00
2013-7-21,89.3,78.1,70.3,80.0,73.9,69.0,97,87,69,29.93,29.85,9,2,14,0.29
2013-7-22,86.6,76.6,68.6,78.0,73.3,68.0,98,90,74,29.92,29.77,8,0,13,0.01
2013-7-23,88.2,79.9,73.2,78.0,74.1,72.0,96,83,63,29.78,29.66,9,2,15,0.00
2013-7-24,88.0,77.8,69.0,77.0,72.7,68.0,97,85,66,29.86,29.67,6,0,14,0.04
2013-7-25,80.2,70.9,63.4,70.0,65.8,62.0,96,85,64,30.01,29.83,9,0,16,0.06
2013-7-26,82.8,70.4,57.3,71.0,63.8,56.0,97,82,55,30.10,30.00,7,0,12,0.00
2013-7-27,85.4,73.5,64.4,74.0,68.7,63.0,97,86,61,30.04,29.89,8,1,12,0.00
2013-7-28,86.4,76.2,70.0,75.0,71.0,68.0,96,85,63,29.96,29.87,7,1,21,0.02
2013-7-29,83.9,73.7,65.6,71.0,66.8,63.0,97,81,55,30.13,29.94,6,0,11,0.02
2013-7-30,83.9,72.3,58.7,72.0,65.4,58.0,97,81,56,30.21,30.11,10,0,10,0.00
2013-7-31,81.8,70.0,62.5,74.0,67.5,61.0,97,92,73,30.13,30.00,6,0,22,1.48
2013-8-1,83.3,73.2,67.6,77.0,70.7,67.0,97,92,77,30.00,29.80,7,1,15,0.38
2013-8-2,86.0,74.1,62.0,73.0,68.1,61.0,98,83,59,29.98,29.86,8,1,13,0.01
2013-8-3,85.5,75.2,65.5,75.0,70.3,64.0,97,86,58,29.96,29.88,11,1,14,0.00
2013-8-4,83.3,74.1,63.2,71.0,65.5,60.0,97,77,48,30.01,29.87,6,0,14,0.00
2013-8-5,80.3,68.4,57.1,70.0,61.8,56.0,97,82,52,30.09,30.00,5,0,7,0.00
2013-8-6,76.7,70.5,65.7,72.0,67.9,64.0,95,91,84,30.05,29.96,8,1,13,0.06
2013-8-7,86.3,76.3,69.6,74.0,70.8,69.0,97,84,61,30.06,30.00,9,2,13,0.00
2013-8-8,86.5,78.9,72.1,77.0,73.5,71.0,96,84,67,30.04,29.96,15,1,15,0.00
2013-8-9,90.3,81.7,74.0,79.0,75.9,72.0,95,83,65,29.98,29.89,16,4,24,0.00
2013-8-10,89.0,79.0,74.1,79.0,73.9,71.0,94,84,67,30.07,29.96,11,1,15,0.01
2013-8-11,84.7,76.3,70.8,77.0,73.8,70.0,97,92,76,30.09,29.99,0,0,5,0.02
2013-8-12,90.0,80.5,72.8,77.0,73.7,72.0,97,81,58,30.02,29.90,6,0,10,0.01
2013-8-13,86.1,77.7,72.5,77.0,74.0,71.0,97,88,70,29.90,29.73,10,2,15,0.02
2013-8-14,74.3,68.0,56.5,73.0,59.0,52.0,96,75,52,30.10,29.77,10,1,19,0.00
2013-8-15,76.7,62.7,51.7,65.0,57.9,51.0,97,86,57,30.17,30.08,3,0,11,0.00
2013-8-16,76.8,64.1,50.4,65.0,58.3,49.0,97,83,55,30.19,30.11,9,0,11,0.00
2013-8-17,78.1,67.6,55.7,69.0,63.4,55.0,97,87,64,30.20,30.15,14,1,18,0.11
2013-8-18,68.5,67.1,64.6,67.0,66.0,64.0,97,96,94,30.20,30.11,7,1,12,0.22
2013-8-19,73.7,67.9,63.2,71.0,66.5,62.0,98,95,89,30.19,30.07,6,0,9,0.13
2013-8-20,84.3,73.4,64.7,74.0,69.2,64.0,98,87,65,30.16,30.09,4,0,8,0.01
2013-8-21,85.2,79.5,67.0,78.0,75.3,66.0,98,87,73,30.20,30.06,9,0,11,0.00
2013-8-22,88.3,81.0,71.3,75.0,71.4,68.0,95,74,52,30.07,29.95,8,1,13,0.01
2013-8-23,80.5,70.7,63.9,73.0,68.3,63.0,98,92,74,30.10,29.92,11,1,15,0.22
2013-8-24,82.6,68.8,55.9,69.0,62.6,55.0,98,83,53,30.30,30.09,8,1,13,0.01
2013-8-25,79.6,66.6,55.0,68.0,59.7,54.0,98,81,49,30.39,30.27,10,1,13,0.00
2013-8-26,83.9,67.4,48.9,66.0,58.5,48.0,98,76,45,30.32,30.06,7,1,11,0.00
2013-8-27,88.7,75.8,63.0,74.0,67.6,59.0,92,77,54,30.05,29.88,8,1,10,0.00
2013-8-28,80.3,75.0,71.4,74.0,72.4,70.0,97,92,75,29.94,29.80,8,1,13,0.09
2013-8-29,84.0,75.5,69.7,75.0,72.2,69.0,98,90,69,30.00,29.79,9,1,17,0.01
2013-8-30,86.3,73.8,61.5,72.0,66.9,61.0,98,81,51,30.05,29.90,5,0,11,0.01
2013-8-31,89.0,77.1,67.9,75.0,70.7,67.0,96,82,61,29.93,29.80,12,2,18,0.01
2013-9-1,91.4,77.9,69.1,76.0,71.8,68.0,97,83,57,29.84,29.73,9,2,18,2.56
2013-9-2,87.7,77.8,71.4,76.0,72.6,71.0,97,85,60,29.82,29.74,10,2,11,0.01
2013-9-3,86.3,76.6,68.9,75.0,71.4,68.0,97,85,59,29.91,29.74,9,0,11,0.00
2013-9-4,81.2,72.8,63.1,70.0,63.9,60.0,97,75,56,30.08,29.91,7,1,11,0.00
2013-9-5,86.9,75.8,57.7,71.0,66.1,57.0,97,74,48,30.07,29.99,6,0,9,0.00
2013-9-6,80.1,68.4,57.2,66.0,60.5,55.0,94,77,54,30.19,30.07,9,0,12,0.00
2013-9-7,79.0,66.1,53.2,68.0,60.2,52.0,97,83,60,30.13,29.95,8,1,11,0.00
2013-9-8,87.1,72.7,60.6,74.0,65.8,60.0,97,81,54,29.98,29.87,5,0,8,0.03
2013-9-9,81.3,73.9,68.0,73.0,69.3,64.0,96,86,71,30.14,29.98,8,1,11,0.03
2013-9-10,90.1,78.0,68.5,76.0,71.7,68.0,97,82,58,30.19,30.09,12,2,14,0.00
2013-9-11,90.8,78.5,69.5,76.0,70.5,65.0,94,77,49,30.16,30.03,9,1,13,0.00
2013-9-12,89.9,77.4,67.8,77.0,70.6,65.0,95,80,60,30.02,29.73,7,2,12,0.00
2013-9-13,81.6,71.8,62.1,69.0,63.4,53.0,97,77,47,29.89,29.70,8,0,12,0.00
2013-9-14,71.8,60.7,49.2,55.0,51.3,48.0,94,73,49,30.14,29.90,8,1,14,0.00
2013-9-15,78.3,60.3,41.9,62.0,52.0,41.0,97,77,45,30.25,30.10,7,1,15,0.00
2013-9-16,82.6,66.6,56.6,68.0,61.4,55.0,96,84,58,30.20,30.06,8,1,14,0.00
2013-9-17,70.8,58.2,46.8,58.0,51.7,45.0,97,81,47,30.37,30.20,7,1,14,0.00
2013-9-18,72.6,55.4,37.5,56.0,47.7,36.0,97,78,45,30.32,30.18,7,0,9,0.00
2013-9-19,75.9,62.2,47.6,63.0,55.6,46.0,97,81,54,30.20,30.08,6,0,11,0.00
2013-9-20,78.2,67.6,58.4,66.0,61.6,56.0,94,82,63,30.09,29.95,7,1,9,0.00
2013-9-21,73.1,66.4,58.8,69.0,63.5,57.0,97,90,78,29.96,29.70,12,2,16,0.70
2013-9-22,76.1,65.4,53.5,66.0,59.6,52.0,98,83,55,29.91,29.71,8,1,13,0.02
2013-9-23,69.5,57.2,47.9,56.0,50.9,47.0,96,81,55,30.08,29.91,8,1,13,0.00
2013-9-24,73.0,57.7,45.5,60.0,51.8,45.0,97,83,56,30.11,29.94,6,0,10,0.00
2013-9-25,73.9,59.2,43.8,63.0,53.5,43.0,97,84,51,29.97,29.86,8,1,12,0.00
2013-9-26,76.5,63.7,52.7,63.0,57.3,51.0,97,82,51,30.04,29.89,9,1,14,0.00
2013-9-27,73.2,58.3,45.7,62.0,53.5,44.0,97,85,60,30.20,30.04,9,1,15,0.00
2013-9-28,71.2,58.6,44.0,59.0,53.4,43.0,97,84,61,30.27,30.18,11,2,14,0.00
2013-9-29,74.1,59.5,44.9,61.0,54.7,44.0,98,85,60,30.18,30.04,10,1,12,0.00
2013-9-30,74.6,58.8,46.8,60.0,53.3,46.0,98,84,51,30.10,29.98,5,0,10,0.01
2013-10-1,81.9,64.1,49.2,65.0,57.7,48.0,97,82,51,30.09,29.99,8,1,8,0.00
2013-10-2,84.1,67.3,51.8,65.0,58.9,51.0,97,78,44,30.10,30.00,6,0,10,0.00
2013-10-3,85.3,68.6,53.5,68.0,60.7,52.0,97,78,48,30.11,30.02,9,0,11,0.00
2013-10-4,86.9,72.7,62.2,70.0,64.6,60.0,95,78,47,30.09,30.00,6,0,9,0.00
2013-10-5,90.9,73.2,58.5,70.0,64.5,57.0,97,77,45,30.08,29.98,11,1,11,0.00
2013-10-6,87.4,74.6,64.7,68.0,65.9,63.0,95,76,49,30.04,29.91,12,1,18,0.00
2013-10-7,76.7,69.6,58.5,71.0,67.4,55.0,97,92,83,30.02,29.81,16,2,24,0.49
2013-10-8,62.0,57.1,53.7,55.0,50.7,47.0,92,79,68,30.23,30.02,12,1,16,0.00
2013-10-9,57.0,55.6,54.2,56.0,53.6,51.0,99,93,83,30.22,30.10,8,1,15,1.37
2013-10-10,58.3,56.1,53.9,57.0,55.2,53.0,97,96,93,30.09,29.92,12,2,16,0.42
2013-10-11,63.1,59.7,57.5,61.0,58.9,57.0,98,97,93,29.94,29.88,6,1,11,0.03
2013-10-12,66.5,63.3,60.4,66.0,62.7,60.0,98,98,96,30.09,29.92,9,1,14,0.11
2013-10-13,64.9,62.8,61.2,64.0,62.2,60.0,98,97,96,30.24,30.08,9,2,13,0.19
2013-10-14,66.5,60.1,51.2,61.0,58.0,50.0,97,93,77,30.27,30.19,12,2,14,0.00
2013-10-15,71.1,59.1,44.8,63.0,56.0,44.0,98,90,71,30.20,30.06,8,1,11,0.00
2013-10-16,72.8,64.6,60.7,65.0,62.0,60.0,97,91,70,30.06,29.93,1,0,5,0.00
2013-10-17,73.4,66.2,60.2,66.0,63.1,59.0,97,90,75,29.93,29.78,17,2,18,0.02
2013-10-18,69.4,59.0,48.9,64.0,52.0,48.0,97,80,51,30.03,29.83,7,1,10,0.00
2013-10-19,64.3,56.7,46.8,63.0,55.7,46.0,98,96,95,29.99,29.80,7,0,13,0.04
2013-10-20,62.9,51.2,39.9,56.0,44.1,37.0,100,80,41,30.12,29.87,5,0,10,0.01
2013-10-21,67.3,49.1,33.0,51.0,41.6,32.0,97,79,43,30.17,29.99,8,1,10,0.00
2013-10-22,72.0,57.8,48.1,61.0,52.5,45.0,93,83,56,29.99,29.78,6,0,10,0.00
2013-10-23,59.4,52.5,44.7,55.0,46.1,38.0,96,79,61,29.94,29.66,12,2,21,0.01
2013-10-24,53.3,42.8,33.6,39.0,34.8,31.0,92,75,49,30.16,29.94,9,1,15,0.00
2013-10-25,55.7,39.6,29.1,37.0,30.6,26.0,96,75,34,30.34,30.15,8,0,14,0.00
2013-10-26,58.1,42.2,25.2,38.0,30.9,24.0,96,69,36,30.34,30.00,18,2,25,0.00
2013-10-27,64.6,50.6,36.8,46.0,39.3,35.0,93,68,41,30.12,30.00,8,1,14,0.00
2013-10-28,67.5,49.0,32.8,52.0,42.9,31.0,97,82,49,30.25,30.12,4,0,7,0.00
2013-10-29,68.4,56.7,48.6,55.0,50.4,47.0,96,81,52,30.35,30.24,4,0,9,0.00
2013-10-30,66.1,56.1,47.1,60.0,53.5,45.0,97,91,80,30.30,30.15,9,1,11,0.01
2013-10-31,71.8,63.4,53.4,63.0,58.7,52.0,97,85,68,30.17,29.87,10,3,17,0.00
2013-11-1,72.2,68.6,65.9,67.0,65.1,61.0,95,88,79,29.85,29.62,21,6,28,0.01
2013-11-2,71.0,60.7,49.8,64.0,51.7,41.0,97,75,39,29.90,29.63,12,2,19,0.00
2013-11-3,61.0,46.3,30.5,44.0,36.5,29.0,95,72,36,30.39,29.90,9,1,15,0.00
2013-11-4,51.0,38.0,27.1,35.0,30.0,26.0,94,76,42,30.60,30.40,7,0,14,0.00
2013-11-5,57.8,46.2,33.1,48.0,40.7,31.0,93,82,65,30.58,30.45,6,0,9,0.00
2013-11-6,68.9,54.5,39.3,56.0,49.8,38.0,96,85,59,30.45,30.10,5,0,10,0.00
2013-11-7,68.4,58.9,39.3,62.0,53.3,35.0,98,82,56,30.09,29.87,17,2,20,0.03
2013-11-8,55.0,40.8,27.6,35.0,30.3,26.0,92,70,39,30.32,30.07,13,1,22,0.00
2013-11-9,58.5,41.1,23.9,35.0,29.5,22.0,100,68,36,30.37,30.11,15,2,17,0.00
2013-11-10,68.8,53.4,39.3,40.0,33.1,28.0,68,49,24,30.25,29.98,21,4,29,0.00
2013-11-11,58.3,43.5,28.5,35.0,31.0,25.0,89,64,38,30.34,30.09,8,1,13,0.00
2013-11-12,51.0,42.4,30.8,40.0,27.6,15.0,81,57,42,30.41,29.99,20,4,27,0.00
2013-11-13,44.4,31.7,21.8,22.0,18.4,16.0,80,60,35,30.51,30.42,12,2,17,0.00
2013-11-14,60.5,41.6,24.7,25.0,20.6,16.0,75,48,19,30.42,30.28,11,2,21,0.00
2013-11-15,59.2,48.1,31.1,47.0,33.1,24.0,91,58,33,30.31,30.20,12,2,15,0.00
2013-11-16,59.0,54.4,49.2,56.0,52.5,47.0,97,93,87,30.28,30.22,4,0,7,0.13
2013-11-17,68.4,60.1,48.3,63.0,57.0,48.0,98,90,75,30.23,29.82,10,2,18,0.01
2013-11-18,69.5,62.4,47.6,66.0,47.0,31.0,95,61,31,29.93,29.74,17,5,27,0.02
2013-11-19,53.3,44.3,35.7,32.0,29.2,27.0,74,56,42,30.34,29.93,11,1,21,0.00
2013-11-20,50.0,40.6,31.8,37.0,31.3,27.0,90,71,51,30.50,30.35,11,2,14,0.00
2013-11-21,59.2,45.6,35.1,50.0,40.7,33.0,92,83,65,30.51,30.39,7,0,7,0.00
2013-11-22,71.1,58.1,44.5,59.0,51.8,42.0,92,80,63,30.39,30.01,17,4,24,0.01
2013-11-23,61.6,52.6,40.8,58.0,38.3,16.0,92,61,29,30.15,30.00,8,2,21,0.00
2013-11-24,39.9,29.3,15.4,20.0,8.3,2.0,74,43,26,30.54,30.15,15,4,23,0.00
2013-11-25,38.3,26.7,12.3,18.0,11.7,8.0,89,57,31,30.59,30.38,9,0,11,0.00
2013-11-26,62.0,40.7,32.6,61.0,34.8,13.0,97,82,41,30.41,29.55,14,2,20,1.46
2013-11-27,43.5,39.5,30.5,43.0,37.7,24.0,97,93,75,30.09,29.50,9,2,16,0.92
2013-11-28,41.5,30.0,20.3,26.0,21.3,18.0,89,72,44,30.48,30.11,5,0,10,0.01
2013-11-29,45.8,31.4,18.4,29.0,23.1,16.0,92,74,46,30.68,30.47,8,0,13,0.00
2013-11-30,44.9,30.9,18.9,32.0,25.1,17.0,93,80,59,30.68,30.38,7,1,10,0.00
2013-12-1,56.3,35.2,20.3,36.0,27.9,19.0,94,78,39,30.37,30.02,9,1,9,0.00
2013-12-2,57.8,38.9,24.0,40.0,31.6,23.0,95,78,43,30.02,29.84,7,0,9,0.00
2013-12-3,61.4,44.0,29.2,47.0,38.0,28.0,97,81,50,30.00,29.86,7,1,11,0.00
2013-12-4,57.0,51.6,43.4,55.0,50.1,41.0,97,94,90,30.07,29.99,3,0,7,0.09
2013-12-5,64.9,60.7,55.1,64.0,59.5,54.0,97,96,94,30.11,29.99,11,2,14,0.06
2013-12-6,75.8,63.3,45.2,66.0,59.2,44.0,95,87,70,30.08,29.91,16,5,23,0.01
2013-12-7,45.4,40.6,33.6,43.0,36.5,29.0,96,86,69,30.51,30.04,11,2,19,0.39
2013-12-8,35.2,33.0,31.6,32.0,29.8,25.0,96,88,69,30.54,30.29,8,1,14,0.72
2013-12-9,41.1,36.2,32.2,40.0,35.4,31.0,97,97,96,30.28,30.05,0,0,0,0.22
2013-12-10,40.4,37.0,29.6,40.0,35.6,26.0,97,94,83,30.27,29.97,5,0,13,0.27
2013-12-11,46.3,32.5,22.3,31.0,25.1,21.0,93,76,45,30.42,30.25,7,1,10,0.00
2013-12-12,40.1,30.1,22.8,27.0,20.8,13.0,93,70,41,30.41,30.25,7,0,11,0.00
2013-12-13,48.6,34.5,23.0,27.0,19.8,14.0,83,57,33,30.34,30.24,16,2,18,0.00
2013-12-14,44.6,38.6,34.5,42.0,33.9,26.0,96,84,58,30.30,29.74,11,1,12,0.92
2013-12-15,52.7,41.7,32.2,43.0,35.1,27.0,97,79,53,30.01,29.68,12,3,19,0.01
2013-12-16,47.4,37.2,30.4,37.0,30.7,26.0,92,78,57,30.14,30.00,7,2,12,0.00
2013-12-17,54.8,39.6,28.5,45.0,35.6,27.0,96,87,58,30.11,29.89,10,2,21,0.28
2013-12-18,44.3,35.4,27.8,38.0,27.9,24.0,96,76,48,30.24,29.97,11,2,17,0.01
2013-12-19,63.4,46.0,28.3,33.0,26.9,23.0,80,51,27,30.25,30.15,13,3,20,0.00
2013-12-20,66.5,53.2,40.1,54.0,43.7,29.0,83,71,50,30.20,30.06,15,3,22,0.00
2013-12-21,72.3,61.7,52.2,64.0,55.4,49.0,91,80,65,30.10,29.99,20,5,25,0.00
2013-12-22,74.3,66.7,61.6,68.0,63.5,60.0,96,89,78,30.06,29.91,22,7,36,1.24
2013-12-23,66.3,59.9,43.4,65.0,58.2,39.0,97,94,82,30.17,29.95,11,4,17,0.78
2013-12-24,43.4,37.6,27.3,38.0,26.5,13.0,82,65,46,30.46,30.17,13,4,19,0.00
2013-12-25,35.2,25.5,16.8,19.0,15.3,12.0,90,67,42,30.58,30.41,9,0,10,0.00
2013-12-26,49.4,30.8,17.0,29.0,22.6,15.0,92,75,41,30.41,30.22,11,1,17,0.00
2013-12-27,51.2,32.9,20.6,30.0,23.1,19.0,93,72,34,30.46,30.34,6,0,9,0.00
2013-12-28,60.7,43.2,28.6,36.0,27.1,22.0,77,56,28,30.38,30.16,11,1,16,0.01
2013-12-29,54.9,46.5,41.5,54.0,44.4,37.0,97,92,74,30.17,29.61,21,3,23,1.42
2013-12-30,53.2,43.9,37.7,43.0,39.0,33.0,95,83,65,30.14,29.87,7,1,10,0.00
2013-12-31,49.1,38.2,27.6,35.0,28.6,21.0,94,70,42,30.33,30.13,15,2,25,0.00
2014-1-1,48.4,32.2,21.8,33.0,25.8,20.0,94,79,47,30.40,30.14,9,1,12,0.00
2014-1-2,46.6,36.6,27.3,40.0,33.2,25.0,96,88,69,30.13,29.56,8,0,9,0.46